{"data":{"norad_id":48240,"epoch":"2026-05-25T03:30:32.729760Z","epoch_age_seconds":59554,"freshness":"FRESH","line1":"1 48240U 21031AG  26145.14621215 -.00000168  00000+0 -48805-3 0  9999","line2":"2 48240  87.8954 294.2917 0001517 107.3393 252.7902 13.14504235245124","mean_motion":13.14504235,"eccentricity":0.0001517,"inclination_deg":87.8954,"raan_deg":294.2917,"arg_perigee_deg":107.3393,"mean_anomaly_deg":252.7902,"bstar":-0.00048805,"rev_number":24512,"period_min":109.54700347542,"perigee_km":1204.6343542885,"apogee_km":1206.9353161733,"semimajor_km":7583.9218352309,"source":"CELESTRAK","updated_at":"2026-05-25T13:38:22.439870Z"}}